Location: Buchberg
(46.9333°N, 15.8500°E)
Time: 03:38:47
(UTC+00:00)

CZ-4B R/B - Pass Details

Date: 14 July 2020
Orbit: 702 x 803 km, 98.9° (Epoch: 11 August)

Event Time Altitude Azimuth Distance (km) Brightness Sun altitude
Rises 00:39:00 0° 19° (NNE) 3,250 8.5 -18.1°
Reaches altitude 10° 00:41:25 10° 24° (NNE) 2,303 7.3 -17.9°
Maximum altitude 00:46:20 50° 100° (E) 946 4.0 -17.5°
Enters shadow 00:49:15 23° 166° (SSE) 1,551 4.7 -17.3°
